Preview of NWS' New Version of Forecast
This preview is not operational and should not be used for support decisions.

Regional Weather Roundup (RWR)

Issued by National Weather Service (NWS)

                            
000
ASUS46 KPQR 200810
RWROR 

OREGON REGIONAL WEATHER ROUNDUP
NATIONAL WEATHER SERVICE PORTLAND OR
100 AM PDT TUE AUG 20 2019

NOTE: "FAIR" INDICATES FEW OR NO CLOUDS BELOW 12,000 FEET WITH
NO SIGNIFICANT WEATHER AND/OR OBSTRUCTIONS TO VISIBILITY.

ORZ001>013-200900-
NORTHWEST OREGON

  
CITY           SKY/WX    TMP DP  RH WIND       PRES   REMARKS
ASTORIA        CLEAR     55  52  89 SE3       29.95S                  
TILLAMOOK      CLEAR     54  52  94 SE5       29.96F                  
NEWPORT        CLEAR     52  52 100 CALM      29.99S                  
FLORENCE       FAIR      54  52  94 CALM      29.97S                  
PORTLAND       PTCLDY    66  56  70 CALM      29.94S                  
VANCOUVER WA   CLEAR     61  55  81 CALM      29.94S                  
SCAPPOOSE      CLEAR     59  55  87 CALM      29.93S                  
HILLSBORO      CLEAR     58  54  86 CALM      29.94S                  
AURORA         CLEAR     63  55  75 N5        29.95R                  
MCMINNVILLE    CLEAR     60  54  80 W5        29.94R                  
SALEM          CLEAR     61  53  75 N5        29.93S                  
CORVALLIS      CLEAR     62  55  77 NW8       29.95R                  
EUGENE         CLEAR     64  55  72 CALM      29.95R                  
CRESWELL       PTCLDY    57  54  88 CALM      29.94S                  
$$

ORZ021-028-200900-
SOUTHWEST OREGON

  
CITY           SKY/WX    TMP DP  RH WIND       PRES   REMARKS
NORTH BEND     CLEAR     55  54  96 SE3       30.00S                  
BROOKINGS      LGT RAIN  52  52 100 CALM      29.99S VSB 1/4          
ROSEBURG       CLEAR     66  56  70 CALM      29.95R                  
SEXTON SUMMIT  CLEAR     63  53  70 CALM      30.06S                  
GRANTS PASS    FAIR      68  54  60 CALM      29.98R                  
MEDFORD        CLEAR     70  52  52 S5        29.94S                  
$$

ORZ014>016-041-200900-
COLUMBIA GORGE

  
CITY           SKY/WX    TMP DP  RH WIND       PRES   REMARKS
TROUTDALE      CLEAR     61  55  81 CALM      29.94R                  
HOOD RIVER     CLEAR     61  50  67 SW3       29.92S                  
THE DALLES     CLEAR     67  49  52 W5        29.88R                  
$$

ORZ029>031-041-044-049-050-061>064-502-503-505>511-200900-
EASTERN OREGON

  
CITY           SKY/WX    TMP DP  RH WIND       PRES   REMARKS
MADRAS         PTCLDY    59  48  67 CALM      30.00S                  
REDMOND        PTCLDY    63  49  60 CALM      30.00S                  
BEND           CLEAR     66  48  52 SW6       30.02F                  
PRINEVILLE     PTCLDY    64  45  48 CALM      30.01S                  
KLAMATH FALLS  CLEAR     55  50  83 SE3       30.06R                  
LAKEVIEW       CLEAR     52  34  50 SW5       30.12R                  
HERMISTON      PTCLDY    62  47  57 SE3       29.88R                  
PENDLETON      PTCLDY    67  45  45 SE6       29.91R                  
JOHN DAY       MOCLDY    68  39  34 CALM      30.02S                  
MEACHAM        CLEAR     50  42  74 CALM      30.05S                  
LA GRANDE      PTCLDY    59  47  64 SW6       29.99S                  
BAKER CITY     PTCLDY    56  48  74 CALM      30.02R                  
BURNS          MOCLDY    64  38  38 W3        30.03R                  
ROME             N/A     62  31  31 S9        30.00S                  
ONTARIO        PTCLDY    74  45  35 CALM      29.90R                  
$$